• In Hungary
  • List of Countries
  • For 7 days
  • Water Temperature
  • Satellite Maps
  • Weather Map
  • News
  • Weather Widgets
  • user-avatar
    Login

    Hourly Weather Tyrgowishte

    Today, 20 August, Monday

    Time Temperature Precipitation Wind Pressure Humidity
    00:00 +22°C° 0 mm 1 mps 744 mmHg 70%
    01:00 +22°C° 0 mm 1 mps 744 mmHg 73%
    02:00 +21°C° 0 mm 1 mps 744 mmHg 75%
    03:00 +21°C° 0 mm 1 mps 744 mmHg 77%
    04:00 +21°C° 0 mm 1 mps 744 mmHg 80%
    05:00 +20°C° 0 mm 1 mps 743 mmHg 82%
    06:00 +22°C° 0 mm 1 mps 744 mmHg 76%
    07:00 +24°C° 0 mm 2 mps 744 mmHg 69%
    08:00 +25°C° 0 mm 2 mps 744 mmHg 62%
    09:00 +27°C° 0 mm 3 mps 744 mmHg 53%
    10:00 +29°C° 0 mm 4 mps 744 mmHg 44%
    11:00 +32°C° 0 mm 5 mps 744 mmHg 35%
    12:00 +32°C° 0 mm 5 mps 744 mmHg 33%
    13:00 +33°C° 0 mm 5 mps 744 mmHg 31%
    14:00 +33°C° 0 mm 5 mps 744 mmHg 29%
    15:00 +33°C° 0 mm 5 mps 743 mmHg 30%
    16:00 +32°C° 0 mm 5 mps 743 mmHg 31%
    17:00 +32°C° 0 mm 4 mps 743 mmHg 33%
    18:00 +28°C° 0 mm 4 mps 743 mmHg 39%
    19:00 +26°C° 0 mm 3 mps 743 mmHg 45%
    20:00 +23°C° 0 mm 2 mps 743 mmHg 51%
    21:00 +21°C° 0 mm 2 mps 743 mmHg 54%
    22:00 +22°C° 0 mm 1 mps 743 mmHg 58%
    23:00 +21°C° 0 mm 1 mps 743 mmHg 61%

    Tomorrow, 21 August, Tuesday

    Time Temperature Precipitation Wind Pressure Humidity
    00:00 +20°C° 0 mm 1 mps 743 mmHg 63%
    01:00 +20°C° 0 mm 1 mps 743 mmHg 64%
    02:00 +17°C° 0 mm 0 mps 743 mmHg 66%
    03:00 +19°C° 0 mm 1 mps 743 mmHg 66%
    04:00 +19°C° 0 mm 1 mps 743 mmHg 67%
    05:00 +18°C° 0 mm 1 mps 743 mmHg 68%
    06:00 +20°C° 0 mm 1 mps 743 mmHg 62%
    07:00 +22°C° 0 mm 1 mps 744 mmHg 56%
    08:00 +24°C° 0 mm 1 mps 744 mmHg 50%
    09:00 +26°C° 0 mm 2 mps 744 mmHg 43%
    10:00 +28°C° 0 mm 3 mps 744 mmHg 36%
    11:00 +30°C° 0 mm 4 mps 744 mmHg 29%
    12:00 +32°C° 0 mm 4 mps 744 mmHg 28%
    13:00 +33°C° 0 mm 4 mps 744 mmHg 27%
    14:00 +34°C° 0 mm 4 mps 743 mmHg 25%
    15:00 +33°C° 0 mm 4 mps 743 mmHg 27%
    16:00 +33°C° 0 mm 4 mps 743 mmHg 28%
    17:00 +32°C° 0 mm 4 mps 743 mmHg 30%
    18:00 +29°C° 0 mm 3 mps 743 mmHg 35%
    19:00 +26°C° 0 mm 3 mps 743 mmHg 41%
    20:00 +23°C° 0 mm 2 mps 743 mmHg 47%
    21:00 +23°C° 0 mm 2 mps 744 mmHg 49%
    22:00 +22°C° 0 mm 1 mps 744 mmHg 52%
    23:00 +21°C° 0 mm 1 mps 744 mmHg 54%

    Day after tomorrow, 22 August, Wednesday

    Time Temperature Precipitation Wind Pressure Humidity
    00:00 +21°C° 0 mm 1 mps 744 mmHg 53%
    01:00 +21°C° 0 mm 1 mps 744 mmHg 53%
    02:00 +20°C° 0 mm 1 mps 744 mmHg 52%
    03:00 +20°C° 0 mm 1 mps 744 mmHg 51%
    04:00 +20°C° 0 mm 1 mps 744 mmHg 49%
    05:00 +20°C° 0 mm 1 mps 744 mmHg 48%
    06:00 +22°C° 0 mm 1 mps 744 mmHg 46%
    07:00 +24°C° 0 mm 2 mps 745 mmHg 44%
    08:00 +25°C° 0 mm 2 mps 745 mmHg 42%
    09:00 +27°C° 0 mm 3 mps 745 mmHg 40%
    10:00 +30°C° 0 mm 3 mps 745 mmHg 37%
    11:00 +33°C° 0 mm 4 mps 745 mmHg 35%
    12:00 +33°C° 0 mm 4 mps 745 mmHg 34%
    13:00 +33°C° 0 mm 4 mps 745 mmHg 33%
    14:00 +33°C° 0 mm 4 mps 744 mmHg 32%
    15:00 +33°C° 0 mm 4 mps 744 mmHg 34%
    16:00 +33°C° 0 mm 4 mps 744 mmHg 35%
    17:00 +31°C° 0 mm 3 mps 744 mmHg 36%
    18:00 +29°C° 0 mm 3 mps 744 mmHg 40%
    19:00 +27°C° 0 mm 2 mps 745 mmHg 44%
    20:00 +25°C° 0 mm 2 mps 745 mmHg 48%
    21:00 +24°C° 0 mm 2 mps 745 mmHg 49%
    22:00 +24°C° 0 mm 1 mps 745 mmHg 50%
    23:00 +23°C° 0 mm 1 mps 745 mmHg 51%

    23 August, Thursday

    Time Temperature Precipitation Wind Pressure Humidity
    00:00 +23°C° 0 mm 1 mps 745 mmHg 54%
    01:00 +22°C° 0 mm 1 mps 745 mmHg 57%
    02:00 +22°C° 0 mm 1 mps 745 mmHg 59%
    03:00 +21°C° 0 mm 1 mps 745 mmHg 64%
    04:00 +21°C° 0 mm 1 mps 745 mmHg 68%
    05:00 +21°C° 0 mm 1 mps 745 mmHg 73%
    06:00 +21°C° 0 mm 2 mps 745 mmHg 69%
    07:00 +24°C° 0 mm 3 mps 745 mmHg 65%
    08:00 +26°C° 0 mm 3 mps 745 mmHg 61%
    09:00 +28°C° 0 mm 4 mps 745 mmHg 54%
    10:00 +29°C° 0 mm 4 mps 745 mmHg 46%
    11:00 +32°C° 0 mm 5 mps 745 mmHg 39%
    12:00 +33°C° 0 mm 5 mps 745 mmHg 38%
    13:00 +33°C° 0 mm 5 mps 744 mmHg 36%
    14:00 +33°C° 0 mm 5 mps 744 mmHg 34%
    15:00 +33°C° 0 mm 5 mps 744 mmHg 36%
    16:00 +32°C° 0 mm 4 mps 744 mmHg 37%
    17:00 +32°C° 0 mm 4 mps 744 mmHg 39%
    18:00 +29°C° 0 mm 4 mps 744 mmHg 46%
    19:00 +26°C° 0 mm 3 mps 744 mmHg 54%
    20:00 +24°C° 0 mm 3 mps 744 mmHg 61%
    21:00 +23°C° 0 mm 2 mps 744 mmHg 67%
    22:00 +21°C° 0 mm 2 mps 744 mmHg 74%
    23:00 +20°C° 0 mm 2 mps 744 mmHg 80%

    24 August, Friday

    Time Temperature Precipitation Wind Pressure Humidity
    00:00 +20°C° 0 mm 1 mps 744 mmHg 82%
    01:00 +20°C° 0 mm 1 mps 744 mmHg 84%
    02:00 +19°C° 0 mm 1 mps 743 mmHg 86%
    03:00 +19°C° 0 mm 1 mps 743 mmHg 87%
    04:00 +19°C° 0 mm 1 mps 743 mmHg 88%
    05:00 +19°C° 0 mm 1 mps 743 mmHg 89%
    06:00 +20°C° 0 mm 1 mps 743 mmHg 82%
    07:00 +21°C° 0 mm 2 mps 743 mmHg 75%
    08:00 +24°C° 0 mm 2 mps 744 mmHg 68%
    09:00 +26°C° 0 mm 2 mps 743 mmHg 60%
    10:00 +28°C° 0 mm 3 mps 743 mmHg 52%
    11:00 +30°C° 0 mm 3 mps 743 mmHg 44%
    12:00 +31°C° 0 mm 3 mps 743 mmHg 41%
    13:00 +33°C° 0 mm 3 mps 742 mmHg 38%
    14:00 +33°C° 0 mm 3 mps 742 mmHg 35%
    15:00 +33°C° 0 mm 3 mps 742 mmHg 37%
    16:00 +31°C° 0 mm 3 mps 741 mmHg 39%
    17:00 +31°C° 0 mm 3 mps 741 mmHg 41%
    18:00 +29°C° 0 mm 3 mps 741 mmHg 48%
    19:00 +26°C° 0 mm 3 mps 741 mmHg 54%
    20:00 +24°C° 0 mm 3 mps 741 mmHg 61%
    21:00 +23°C° 0 mm 2 mps 741 mmHg 65%
    22:00 +21°C° 0 mm 2 mps 741 mmHg 70%
    23:00 +21°C° 0 mm 1 mps 741 mmHg 74%

    25 August, Saturday

    Time Temperature Precipitation Wind Pressure Humidity
    00:00 +21°C° 0 mm 1 mps 741 mmHg 75%
    01:00 +20°C° 0 mm 1 mps 741 mmHg 75%
    02:00 +20°C° 0 mm 1 mps 741 mmHg 76%
    03:00 +20°C° 0 mm 1 mps 740 mmHg 76%
    04:00 +19°C° 0 mm 1 mps 740 mmHg 76%
    05:00 +19°C° 0 mm 1 mps 740 mmHg 76%
    06:00 +21°C° 0 mm 1 mps 740 mmHg 69%
    07:00 +23°C° 0 mm 1 mps 741 mmHg 61%
    08:00 +25°C° 0 mm 1 mps 741 mmHg 53%
    09:00 +27°C° 0 mm 1 mps 741 mmHg 45%
    10:00 +29°C° 0 mm 1 mps 741 mmHg 38%
    11:00 +31°C° 0 mm 1 mps 741 mmHg 30%
    12:00 +32°C° 0 mm 1 mps 740 mmHg 28%
    13:00 +34°C° 0 mm 2 mps 740 mmHg 25%
    14:00 +35°C° 0 mm 2 mps 739 mmHg 23%
    15:00 +35°C° 0 mm 2 mps 739 mmHg 24%
    16:00 +34°C° 0 mm 2 mps 739 mmHg 24%
    17:00 +34°C° 0 mm 2 mps 739 mmHg 24%
    18:00 +31°C° 0 mm 1 mps 739 mmHg 30%
    19:00 +28°C° 0 mm 1 mps 739 mmHg 35%
    20:00 +25°C° 0 mm 1 mps 739 mmHg 41%
    21:00 +24°C° 0 mm 1 mps 739 mmHg 44%
    22:00 +24°C° 0 mm 1 mps 739 mmHg 47%
    23:00 +23°C° 0 mm 1 mps 739 mmHg 50%
    Show more